Location: Central Falls
(41.8900°N, 71.3929°W)
Time: 11:35:34
(UTC+00:00)

A-11 Canister half - Pass Details

Date: 09 December 2023
Orbit: 1512 x 1687 km, 47.2° (Epoch: 20 February)

Event Time Altitude Azimuth Distance (km) Brightness Sun altitude
Rises 02:10:35 0° 201° (SSW) 4,661 - -53.9°
Reaches altitude 10° 02:13:56 10° 193° (SSW) 3,697 - -54.5°
Maximum altitude 02:22:01 34° 132° (SE) 2,356 - -55.9°
Drops below altitude 10° 02:30:21 10° 72° (ENE) 3,822 - -57.3°
Sets 02:33:51 0° 64° (ENE) 4,837 - -57.9°
